Time,TemperatureF,DewpointF,PressureIn,WindDirection,WindDirectionDegrees,WindSpeedMPH,WindSpeedGustMPH,Humidity,HourlyPrecipIn,Conditions,Clouds,dailyrainin,SolarRadiationWatts/m^2,SoftwareType,DateUTC
2013-06-13 00:12:00,81.1,71.0,29.92,SW,217,0.0,-999.0,72,-99.99,,,0.00,0,weatherlink.com 1.10,2013-06-13 05:12:00,
2013-06-13 00:27:00,81.0,71.0,29.91,SW,217,0.0,-999.0,72,-99.99,,,0.00,0,weatherlink.com 1.10,2013-06-13 05:27:00,
2013-06-13 00:42:00,81.0,71.0,29.92,SW,232,2.0,-999.0,72,-99.99,,,0.00,0,weatherlink.com 1.10,2013-06-13 05:42:00,
2013-06-13 00:57:00,80.9,71.0,29.92,SW,232,3.0,-999.0,72,-99.99,,,0.00,0,weatherlink.com 1.10,2013-06-13 05:57:00,
2013-06-13 01:12:00,80.8,71.0,29.92,WSW,238,3.0,-999.0,72,-99.99,,,0.00,0,weatherlink.com 1.10,2013-06-13 06:12:00,
2013-06-13 01:27:00,80.6,71.0,29.92,WSW,238,0.0,-999.0,73,-99.99,,,0.00,0,weatherlink.com 1.10,2013-06-13 06:27:00,
2013-06-13 01:42:00,80.3,71.0,29.92,WSW,244,3.0,-999.0,73,-99.99,,,0.00,0,weatherlink.com 1.10,2013-06-13 06:42:00,
2013-06-13 01:57:00,80.0,71.0,29.92,West,260,0.0,-999.0,74,-99.99,,,0.00,0,weatherlink.com 1.10,2013-06-13 06:57:00,
2013-06-13 02:12:00,79.6,71.0,29.92,West,260,0.0,-999.0,74,-99.99,,,0.00,0,weatherlink.com 1.10,2013-06-13 07:12:00,
2013-06-13 02:27:00,79.3,71.0,29.93,West,261,0.0,-999.0,75,-99.99,,,0.00,0,weatherlink.com 1.10,2013-06-13 07:27:00,
2013-06-13 02:42:00,79.0,71.0,29.92,West,261,0.0,-999.0,76,-99.99,,,0.00,0,weatherlink.com 1.10,2013-06-13 07:42:00,
2013-06-13 02:57:00,79.0,71.0,29.92,WSW,255,0.0,-999.0,76,-99.99,,,0.00,0,weatherlink.com 1.10,2013-06-13 07:57:00,
2013-06-13 03:12:00,78.8,71.0,29.92,WSW,255,0.0,-999.0,76,-99.99,,,0.00,0,weatherlink.com 1.10,2013-06-13 08:12:00,
2013-06-13 03:27:00,78.7,71.0,29.92,WSW,254,0.0,-999.0,77,-99.99,,,0.00,0,weatherlink.com 1.10,2013-06-13 08:27:00,
2013-06-13 03:42:00,78.5,71.0,29.92,WSW,254,0.0,-999.0,77,-99.99,,,0.00,0,weatherlink.com 1.10,2013-06-13 08:42:00,
2013-06-13 03:57:00,78.4,71.0,29.92,West,263,3.0,-999.0,77,-99.99,,,0.00,0,weatherlink.com 1.10,2013-06-13 08:57:00,
2013-06-13 04:12:00,78.4,71.0,29.91,West,266,1.0,-999.0,78,-99.99,,,0.00,0,weatherlink.com 1.10,2013-06-13 09:12:00,
2013-06-13 04:27:00,78.4,71.0,29.91,West,266,5.0,-999.0,78,-99.99,,,0.00,0,weatherlink.com 1.10,2013-06-13 09:27:00,
2013-06-13 04:42:00,78.4,71.0,29.91,West,263,0.0,-999.0,78,-99.99,,,0.00,0,weatherlink.com 1.10,2013-06-13 09:42:00,
2013-06-13 04:57:00,78.2,71.0,29.92,West,268,4.0,-999.0,78,-99.99,,,0.00,0,weatherlink.com 1.10,2013-06-13 09:57:00,
2013-06-13 05:12:00,78.1,71.0,29.93,WNW,284,6.0,-999.0,79,-99.99,,,0.00,0,weatherlink.com 1.10,2013-06-13 10:12:00,
2013-06-13 05:27:00,76.8,71.0,29.94,NW,309,0.0,-999.0,82,-99.99,,,0.00,0,weatherlink.com 1.10,2013-06-13 10:27:00,
2013-06-13 05:43:00,75.8,71.0,29.94,NW,309,0.0,-999.0,84,-99.99,,,0.00,0,weatherlink.com 1.10,2013-06-13 10:43:00,
2013-06-13 05:58:00,76.6,71.0,29.95,NW,309,0.0,-999.0,83,-99.99,,,0.00,0,weatherlink.com 1.10,2013-06-13 10:58:00,
2013-06-13 06:13:00,76.9,71.0,29.96,NW,309,0.0,-999.0,82,-99.99,,,0.00,9,weatherlink.com 1.10,2013-06-13 11:13:00,
2013-06-13 06:28:00,77.3,71.0,29.96,WNW,295,0.0,-999.0,82,-99.99,,,0.00,18,weatherlink.com 1.10,2013-06-13 11:28:00,
2013-06-13 06:43:00,77.6,71.0,29.96,WNW,293,0.0,-999.0,81,-99.99,,,0.00,53,weatherlink.com 1.10,2013-06-13 11:43:00,
2013-06-13 06:59:00,77.7,72.0,29.97,WNW,293,0.0,-999.0,82,-99.99,,,0.00,58,weatherlink.com 1.10,2013-06-13 11:59:00,
2013-06-13 07:14:00,77.8,72.0,29.96,WNW,292,7.0,-999.0,82,-99.99,,,0.00,91,weatherlink.com 1.10,2013-06-13 12:14:00,
2013-06-13 07:29:00,78.2,72.0,29.96,WNW,288,0.0,-999.0,82,-99.99,,,0.00,148,weatherlink.com 1.10,2013-06-13 12:29:00,
2013-06-13 07:44:00,79.2,73.0,29.96,WNW,294,0.0,-999.0,81,-99.99,,,0.00,236,weatherlink.com 1.10,2013-06-13 12:44:00,
2013-06-13 07:59:00,80.0,73.0,29.97,WNW,299,6.0,-999.0,79,-99.99,,,0.00,232,weatherlink.com 1.10,2013-06-13 12:59:00,
2013-06-13 08:14:00,80.0,73.0,29.98,NW,306,7.0,-999.0,80,-99.99,,,0.00,192,weatherlink.com 1.10,2013-06-13 13:14:00,
2013-06-13 08:29:00,79.8,73.0,29.98,NW,318,10.0,-999.0,79,-99.99,,,0.00,163,weatherlink.com 1.10,2013-06-13 13:29:00,
2013-06-13 08:44:00,79.8,70.0,29.98,NNW,331,7.0,-999.0,73,-99.99,,,0.00,438,weatherlink.com 1.10,2013-06-13 13:44:00,
2013-06-13 08:59:00,79.8,70.0,29.99,NNW,333,9.0,-999.0,72,-99.99,,,0.00,480,weatherlink.com 1.10,2013-06-13 13:59:00,
2013-06-13 09:14:00,79.9,69.0,29.99,North,351,14.0,-999.0,69,-99.99,,,0.00,519,weatherlink.com 1.10,2013-06-13 14:14:00,
2013-06-13 09:29:00,79.8,69.0,30.00,WNW,302,11.0,-999.0,70,-99.99,,,0.00,592,weatherlink.com 1.10,2013-06-13 14:29:00,
2013-06-13 09:43:00,79.8,68.0,30.00,NW,320,7.0,-999.0,68,-99.99,,,0.00,257,weatherlink.com 1.10,2013-06-13 14:43:00,
2013-06-13 09:58:00,79.6,67.0,30.00,NW,326,6.0,-999.0,65,-99.99,,,0.00,543,weatherlink.com 1.10,2013-06-13 14:58:00,
2013-06-13 10:13:00,79.8,67.0,30.01,NW,319,9.0,-999.0,65,-99.99,,,0.00,679,weatherlink.com 1.10,2013-06-13 15:13:00,
2013-06-13 10:29:00,80.3,67.0,30.01,NW,325,11.0,-999.0,63,-99.99,,,0.00,740,weatherlink.com 1.10,2013-06-13 15:29:00,
2013-06-13 10:44:00,80.7,66.0,30.01,NNW,327,7.0,-999.0,62,-99.99,,,0.00,768,weatherlink.com 1.10,2013-06-13 15:44:00,
2013-06-13 10:59:00,81.2,67.0,30.01,NW,323,7.0,-999.0,63,-99.99,,,0.00,800,weatherlink.com 1.10,2013-06-13 15:59:00,
2013-06-13 11:14:00,81.6,67.0,30.01,NNW,330,7.0,-999.0,61,-99.99,,,0.00,828,weatherlink.com 1.10,2013-06-13 16:14:00,
2013-06-13 11:29:00,82.2,67.0,30.01,NNW,329,6.0,-999.0,60,-99.99,,,0.00,854,weatherlink.com 1.10,2013-06-13 16:29:00,
2013-06-13 11:44:00,82.4,66.0,30.01,NW,317,8.0,-999.0,57,-99.99,,,0.00,881,weatherlink.com 1.10,2013-06-13 16:44:00,
2013-06-13 11:59:00,82.7,66.0,30.01,NNW,343,4.0,-999.0,57,-99.99,,,0.00,898,weatherlink.com 1.10,2013-06-13 16:59:00,
2013-06-13 12:14:00,83.3,67.0,30.01,NW,321,9.0,-999.0,58,-99.99,,,0.00,916,weatherlink.com 1.10,2013-06-13 17:14:00,
2013-06-13 12:29:00,83.6,67.0,30.01,North,355,7.0,-999.0,57,-99.99,,,0.00,930,weatherlink.com 1.10,2013-06-13 17:29:00,
2013-06-13 12:44:00,83.8,67.0,30.01,NW,323,7.0,-999.0,58,-99.99,,,0.00,940,weatherlink.com 1.10,2013-06-13 17:44:00,
2013-06-13 12:59:00,84.0,68.0,30.01,NNW,327,9.0,-999.0,59,-99.99,,,0.00,951,weatherlink.com 1.10,2013-06-13 17:59:00,
2013-06-13 13:14:00,84.3,67.0,30.00,North,360,6.0,-999.0,57,-99.99,,,0.00,946,weatherlink.com 1.10,2013-06-13 18:14:00,
2013-06-13 13:29:00,84.8,68.0,30.00,NNW,327,7.0,-999.0,58,-99.99,,,0.00,940,weatherlink.com 1.10,2013-06-13 18:29:00,
2013-06-13 13:44:00,85.0,69.0,30.00,NNW,333,6.0,-999.0,58,-99.99,,,0.00,937,weatherlink.com 1.10,2013-06-13 18:44:00,
2013-06-13 13:59:00,85.2,69.0,30.00,NW,323,8.0,-999.0,59,-99.99,,,0.00,923,weatherlink.com 1.10,2013-06-13 18:59:00,
2013-06-13 14:14:00,85.4,69.0,29.99,North,355,5.0,-999.0,58,-99.99,,,0.00,904,weatherlink.com 1.10,2013-06-13 19:14:00,
2013-06-13 14:29:00,85.7,68.0,29.99,NNW,346,7.0,-999.0,56,-99.99,,,0.00,891,weatherlink.com 1.10,2013-06-13 19:29:00,
2013-06-13 14:44:00,85.9,69.0,29.99,North,360,5.0,-999.0,57,-99.99,,,0.00,870,weatherlink.com 1.10,2013-06-13 19:44:00,
2013-06-13 14:59:00,86.3,69.0,29.98,NNW,346,10.0,-999.0,56,-99.99,,,0.00,849,weatherlink.com 1.10,2013-06-13 19:59:00,
2013-06-13 15:14:00,86.4,67.0,29.98,North,355,10.0,-999.0,53,-99.99,,,0.00,824,weatherlink.com 1.10,2013-06-13 20:14:00,
2013-06-13 15:29:00,86.7,69.0,29.98,NNW,328,5.0,-999.0,55,-99.99,,,0.00,795,weatherlink.com 1.10,2013-06-13 20:29:00,
2013-06-13 15:44:00,86.6,67.0,29.98,North,349,8.0,-999.0,52,-99.99,,,0.00,763,weatherlink.com 1.10,2013-06-13 20:44:00,
2013-06-13 15:59:00,86.9,70.0,29.98,NNE,18,0.0,-999.0,57,-99.99,,,0.00,726,weatherlink.com 1.10,2013-06-13 20:59:00,
2013-06-13 16:14:00,87.0,70.0,29.97,NE,37,4.0,-999.0,57,-99.99,,,0.00,693,weatherlink.com 1.10,2013-06-13 21:14:00,
2013-06-13 16:29:00,86.5,68.0,29.97,North,355,7.0,-999.0,55,-99.99,,,0.00,652,weatherlink.com 1.10,2013-06-13 21:29:00,
2013-06-13 16:44:00,86.5,69.0,29.97,North,350,5.0,-999.0,56,-99.99,,,0.00,608,weatherlink.com 1.10,2013-06-13 21:44:00,
2013-06-13 16:59:00,86.5,68.0,29.96,North,355,6.0,-999.0,55,-99.99,,,0.00,568,weatherlink.com 1.10,2013-06-13 21:59:00,
2013-06-13 17:14:00,86.2,68.0,29.96,NNW,346,8.0,-999.0,55,-99.99,,,0.00,520,weatherlink.com 1.10,2013-06-13 22:14:00,
2013-06-13 17:29:00,86.5,68.0,29.97,NNE,17,5.0,-999.0,54,-99.99,,,0.00,478,weatherlink.com 1.10,2013-06-13 22:29:00,
2013-06-13 17:44:00,86.1,67.0,29.97,North,355,8.0,-999.0,54,-99.99,,,0.00,425,weatherlink.com 1.10,2013-06-13 22:44:00,
2013-06-13 17:59:00,85.9,68.0,29.97,North,355,5.0,-999.0,56,-99.99,,,0.00,378,weatherlink.com 1.10,2013-06-13 22:59:00,
2013-06-13 18:14:00,85.4,69.0,29.97,North,355,9.0,-999.0,58,-99.99,,,0.00,72,weatherlink.com 1.10,2013-06-13 23:14:00,
2013-06-13 18:29:00,85.0,69.0,29.97,North,9,3.0,-999.0,58,-99.99,,,0.00,67,weatherlink.com 1.10,2013-06-13 23:29:00,
2013-06-13 18:44:00,84.7,68.0,29.97,NNE,15,6.0,-999.0,58,-99.99,,,0.00,54,weatherlink.com 1.10,2013-06-13 23:44:00,
2013-06-13 18:59:00,84.1,69.0,29.98,North,355,4.0,-999.0,60,-99.99,,,0.00,93,weatherlink.com 1.10,2013-06-13 23:59:00,
2013-06-13 19:14:00,83.8,69.0,29.98,North,355,6.0,-999.0,61,-99.99,,,0.00,63,weatherlink.com 1.10,2013-06-14 00:14:00,
2013-06-13 19:29:00,83.4,69.0,29.98,North,5,1.0,-999.0,63,-99.99,,,0.00,44,weatherlink.com 1.10,2013-06-14 00:29:00,
2013-06-13 19:44:00,82.9,69.0,29.98,North,355,7.0,-999.0,64,-99.99,,,0.00,32,weatherlink.com 1.10,2013-06-14 00:44:00,
2013-06-13 19:59:00,82.2,69.0,29.98,North,355,2.0,-999.0,64,-99.99,,,0.00,21,weatherlink.com 1.10,2013-06-14 00:59:00,
2013-06-13 20:14:00,81.4,69.0,29.99,North,355,4.0,-999.0,66,-99.99,,,0.00,5,weatherlink.com 1.10,2013-06-14 01:14:00,
2013-06-13 20:29:00,80.7,69.0,29.99,North,355,4.0,-999.0,68,-99.99,,,0.00,0,weatherlink.com 1.10,2013-06-14 01:29:00,
2013-06-13 20:44:00,80.1,70.0,29.99,North,355,0.0,-999.0,70,-99.99,,,0.00,0,weatherlink.com 1.10,2013-06-14 01:44:00,
2013-06-13 20:59:00,79.3,71.0,30.00,North,355,5.0,-999.0,75,-99.99,,,0.00,0,weatherlink.com 1.10,2013-06-14 01:59:00,
2013-06-13 21:14:00,78.5,70.0,30.01,North,355,0.0,-999.0,76,-99.99,,,0.00,0,weatherlink.com 1.10,2013-06-14 02:14:00,
2013-06-13 21:29:00,78.0,69.0,30.01,North,355,0.0,-999.0,74,-99.99,,,0.00,0,weatherlink.com 1.10,2013-06-14 02:29:00,
2013-06-13 21:44:00,77.8,69.0,30.01,North,9,3.0,-999.0,73,-99.99,,,0.00,0,weatherlink.com 1.10,2013-06-14 02:44:00,
2013-06-13 21:59:00,77.5,68.0,30.01,NNE,22,0.0,-999.0,72,-99.99,,,0.00,0,weatherlink.com 1.10,2013-06-14 02:59:00,
2013-06-13 22:14:00,77.0,68.0,30.01,NNE,22,0.0,-999.0,73,-99.99,,,0.00,0,weatherlink.com 1.10,2013-06-14 03:14:00,
2013-06-13 22:30:00,76.5,68.0,30.01,NNE,22,0.0,-999.0,74,-99.99,,,0.00,0,weatherlink.com 1.10,2013-06-14 03:30:00,
2013-06-13 22:45:00,75.9,67.0,30.01,NNE,22,0.0,-999.0,75,-99.99,,,0.00,0,weatherlink.com 1.10,2013-06-14 03:45:00,
2013-06-13 23:00:00,75.4,67.0,30.01,NNE,22,0.0,-999.0,76,-99.99,,,0.00,0,weatherlink.com 1.10,2013-06-14 04:00:00,
2013-06-13 23:15:00,75.0,67.0,30.02,NNE,22,0.0,-999.0,76,-99.99,,,0.00,0,weatherlink.com 1.10,2013-06-14 04:15:00,
2013-06-13 23:30:00,74.8,67.0,30.01,NNE,22,0.0,-999.0,77,-99.99,,,0.00,0,weatherlink.com 1.10,2013-06-14 04:30:00,
2013-06-13 23:45:00,74.2,67.0,30.00,NNE,22,0.0,-999.0,77,-99.99,,,0.00,0,weatherlink.com 1.10,2013-06-14 04:45:00,